Other Public Products
Issued by NWS Charleston, SC

Current Version | Previous Version | Text Only | Print | Product List | Glossary Off
Versions: 1 2 3 4 5 6 7 8 9 10 11 12 13 14 15 16 17 18 19 20 21 22 23 24 25 26 27 28 29 30 31 32 33 34 35 36 37 38 39 40 41 42 43 44 45 46 47 48 49 50

594
FPUS82 KCHS 280027
OPUCHS

TEST...KCHS/KSAV Gateway Observations...TEST
National Weather Service Charleston SC
800 PM EDT MON MAR 27 2017

NOTE: "fair" indicates few or no clouds below 12,000 feet with no
significant weather and/or obstructions to visibility.

SCZ050-WAZ558-NCZ071-TXZ119-213-PAZ071-DCZ001-FLZ074-172-MI076-
NYZ176-178-MAZ016-IL014-TNZ027-NJZ106-GAZ044-MD014-280100-

...Gateway Observations for Charleston International...

CITY           SKY/WX    TMP DP  RH WIND       PRES   REMARKS
Chas Airport   MOCLDY    68  57  68 S9        30.02S
6HR MIN TEMP:  68; 6HR MAX TEMP:  81;

Seattle        CLOUDY    49  44  83 SW12      30.18S
6HR MIN TEMP:  48; 6HR MAX TEMP:  53; 6HR PCP:  0.09;

Charlotte      MOCLDY    74  57  55 S10       29.94F
6HR MIN TEMP:  74; 6HR MAX TEMP:  79;

Dallas DFW     CLEAR     72  54  53 CALM      29.84F
6HR MIN TEMP:  65; 6HR MAX TEMP:  73;

Dallas Love    PTCLDY    72  52  49 E6        29.85S
6HR MIN TEMP:  64; 6HR MAX TEMP:  74;

Philladelphia  PTCLDY    54  50  86 E5        29.96F
6HR MIN TEMP:  54; 6HR MAX TEMP:  62;

Wash National  MOCLDY    68  57  68 NE3       29.92R
6HR MIN TEMP:  64; 6HR MAX TEMP:  76;

Baltimore      MOCLDY    61  54  77 N3        29.93S
6HR MIN TEMP:  60; 6HR MAX TEMP:  70;

Miami          PTCLDY    74  57  55 NE10      30.01R
6HR MIN TEMP:  74; 6HR MAX TEMP:  81;

Detroit        CLOUDY    59  49  69 W7        29.89S
6HR MIN TEMP:  59; 6HR MAX TEMP:  63;

Newark         CLOUDY    54  48  80 W5        29.98S
6HR MIN TEMP:  51; 6HR MAX TEMP:  56; 6HR PCP: TRACE;

Laguardia      MOCLDY    49  43  80 NE8       29.99S
6HR MIN TEMP:  46; 6HR MAX TEMP:  50; 6HR PCP: TRACE;

J F K          CLOUDY    49  46  90 SE3       30.00S
6HR MIN TEMP:  49; 6HR MAX TEMP:  58;

Boston Logan   CLOUDY    41  40  96 N10       30.02R
6HR MIN TEMP:  41; 6HR MAX TEMP:  44; 6HR PCP:  0.06;

Ft. Lauderdale PTCLDY    74  57  55 E10       30.00S
6HR MIN TEMP:  74; 6HR MAX TEMP:  80;

Chicago O`Hare CLOUDY    45  39  79 NE8       29.93R
6HR MIN TEMP:  45; 6HR MAX TEMP:  50; 6HR PCP: TRACE;

Chicago Midway CLOUDY    44  40  85 NE13      29.93R
6HR MIN TEMP:  44; 6HR MAX TEMP:  49;

Houston Bush   PTCLDY    81  66  60 S13       29.82S
6HR MIN TEMP:  81; 6HR MAX TEMP:  87;

Houston Hobby  PTCLDY    78  66  66 S13       29.83S
6HR MIN TEMP:  78; 6HR MAX TEMP:  84;

Nashville      TSTM      61  58  90 E7        29.89R
6HR MIN TEMP:  61; 6HR MAX TEMP:  78; 6HR PCP:  0.05;

Atlanta        CLOUDY    75  54  47 S9        29.93F
6HR MIN TEMP:  73; 6HR MAX TEMP:  78; 6HR PCP: TRACE;


$$

GAZ044-118-TXZ119-213-NCZ071-DCZ001-MDZ014-506-PAZ021-071-NJZ106-
NYZ176-178-MAZ106-OHZ011-021-055-MIZ076-KYZ091-ILZ014-INZ047-
MNZ060-ONZ431-280100-

...Gateway Observations for Savannah International...

CITY           SKY/WX    TMP DP  RH WIND       PRES   REMARKS
Savannah Arpt  MOCLDY    70  56  61 S14       30.01S
6HR MIN TEMP:  70; 6HR MAX TEMP:  81;

Atlanta        CLOUDY    75  54  47 S9        29.93F
6HR MIN TEMP:  73; 6HR MAX TEMP:  78; 6HR PCP: TRACE;

Charlotte      MOCLDY    74  57  55 S10       29.94F
6HR MIN TEMP:  74; 6HR MAX TEMP:  79;

Dallas DFW     CLEAR     72  54  53 CALM      29.84F
6HR MIN TEMP:  65; 6HR MAX TEMP:  73;

Houston Bush   PTCLDY    81  66  60 S13       29.82S
6HR MIN TEMP:  81; 6HR MAX TEMP:  87;

Wash National  MOCLDY    68  57  68 NE3       29.92R
6HR MIN TEMP:  64; 6HR MAX TEMP:  76;

Wash Dulles    MOCLDY    66  56  70 E5        29.91S
6HR MIN TEMP:  64; 6HR MAX TEMP:  75;

Baltimore      MOCLDY    61  54  77 N3        29.93S
6HR MIN TEMP:  60; 6HR MAX TEMP:  70;

Philadelphia   PTCLDY    54  50  86 E5        29.96F
6HR MIN TEMP:  54; 6HR MAX TEMP:  62;

Newark         CLOUDY    54  48  80 W5        29.98S
6HR MIN TEMP:  51; 6HR MAX TEMP:  56; 6HR PCP: TRACE;

Laguardia      MOCLDY    49  43  80 NE8       29.99S
6HR MIN TEMP:  46; 6HR MAX TEMP:  50; 6HR PCP: TRACE;

J F K          CLOUDY    49  46  90 SE3       30.00S
6HR MIN TEMP:  49; 6HR MAX TEMP:  58;

Boston         CLOUDY    41  40  96 N10       30.02R
6HR MIN TEMP:  41; 6HR MAX TEMP:  44; 6HR PCP:  0.06;

Pittsburg      CLOUDY    65  49  56 SW3       29.89S
6HR MIN TEMP:  63; 6HR MAX TEMP:  68;

Akron          CLOUDY    59  46  62 CALM      29.90R
6HR MIN TEMP:  59; 6HR MAX TEMP:  65;

Cleveland      MOCLDY    55  46  71 N6        29.93R
6HR MIN TEMP:  55; 6HR MAX TEMP:  64;

Cincinnati     LGT RAIN  63  58  83 SW8       29.84R
6HR MIN TEMP:  62; 6HR MAX TEMP:  69; 6HR PCP: TRACE;

Columbus       CLOUDY    60  53  78 NE5       29.87R
Detroit        CLOUDY    59  49  69 W7        29.89S
6HR MIN TEMP:  59; 6HR MAX TEMP:  63;

Chicago O`Hare CLOUDY    45  39  79 NE8       29.93R
6HR MIN TEMP:  45; 6HR MAX TEMP:  50; 6HR PCP: TRACE;

Minneapolis    PTCLDY    53  37  54 SE6       29.96R
6HR MIN TEMP:  53; 6HR MAX TEMP:  61;

Indianapolis   CLOUDY    60  53  77 E3        29.81S
6HR MIN TEMP:  58; 6HR MAX TEMP:  61; 6HR PCP:  0.02;

Toronto Canada CLOUDY    55  50  82 W7        29.88R

$$




USA.gov is the U.S. government's official web portal to all federal, state and local government web resources and services.